GW1238 Weather Reports


time (UTC)temp
C
wind
direction
speed
KPH
gust
KPH
rain 1hr
cm
rain 24hr
cm
rain mn
cm
humidity
%
barometer
mb
20260509132815 17 194 3.2 6.4 0.00 0.00 0.00 82 1015.5
20260509132314 17 169 4.8 6.4 0.00 0.00 0.00 83 1015.3
20260509131810 17 175 6.4 6.4 0.00 0.00 0.00 84 1015.4
20260509131307 17 171 4.8 4.8 0.00 0.00 0.00 85 1015.4
20260509130803 16 182 4.8 4.8 0.00 0.00 0.00 87 1015.3
20260509130259 16 168 4.8 4.8 0.00 0.00 0.00 86 1015.3
20260509125756 16 166 3.2 4.8 0.00 0.00 0.00 87 1015.3
20260509125252 16 173 1.6 3.2 0.00 0.00 0.00 87 1015.4
20260509124749 16 165 3.2 4.8 0.00 0.00 0.00 87 1015.9
20260509124245 15 178 3.2 4.8 0.00 0.00 0.00 88 1015.7
20260509123744 15 182 3.2 4.8 0.00 0.00 0.00 88 1015.9
20260509123241 15 196 4.8 4.8 0.00 0.00 0.00 88 1015.7
20260509122736 15 190 3.2 6.4 0.00 0.00 0.00 87 1015.3
20260509122233 15 190 3.2 6.4 0.00 0.00 0.00 88 1015.3
20260509121730 15 194 6.4 6.4 0.00 0.00 0.00 89 1015.3
20260509121227 15 198 6.4 6.4 0.00 0.00 0.00 89 1015.5
20260509120726 15 156 1.6 4.8 0.00 0.00 0.00 89 1015.4
20260509120223 15 199 3.2 4.8 0.00 0.00 0.00 89 1015.2
20260509115721 15 188 3.2 4.8 0.00 0.00 0.00 89 1015.2
20260509115218 15 224 3.2 9.7 0.00 0.00 0.00 90 1015.2
20260509114716 15 196 4.8 6.4 0.00 0.00 0.00 90 1015.3
20260509114215 15 195 3.2 6.4 0.00 0.00 0.00 91 1015.1
20260509113713 15 192 4.8 6.4 0.00 0.00 0.00 91 1015.1
20260509113210 15 198 4.8 9.7 0.00 0.00 0.00 93 1015.3
20260509112706 14 201 4.8 4.8 0.00 0.00 0.00 93 1015.3
20260509112203 15 208 3.2 4.8 0.00 0.00 0.00 94 1015.1
20260509111700 14 185 6.4 9.7 0.00 0.00 0.00 95 1014.9
20260509111157 13 239 0.0 1.6 0.00 0.00 0.00 95 1014.9
20260509110654 13 203 0.0 0.0 0.00 0.00 0.00 95 1015.2
20260509110151 13 214 0.0 0.0 0.00 0.00 0.00 95 1015.3
20260509105649 13 289 3.2 3.2 0.00 0.00 0.00 95 1015.2
20260509105146 13 270 1.6 1.6 0.00 0.00 0.00 95 1015.1
20260509104643 13 307 1.6 3.2 0.00 0.00 0.00 95 1015.2
20260509104140 13 284 1.6 1.6 0.00 0.00 0.00 95 1015.1
20260509103638 13 294 3.2 3.2 0.00 0.00 0.00 96 1015.0
20260509103136 13 290 0.0 1.6 0.00 0.00 0.00 96 1015.1
20260509102633 13 289 1.6 3.2 0.00 0.00 0.00 96 1015.1
20260509102130 13 282 1.6 3.2 0.00 0.00 0.00 96 1014.9
20260509101626 12 291 3.2 3.2 0.00 0.00 0.00 95 1014.9
20260509101123 12 314 1.6 3.2 0.00 0.00 0.00 95 1015.1
20260509100620 12 292 3.2 6.4 0.00 0.00 0.00 95 1015.2
20260509100118 12 300 3.2 4.8 0.00 0.00 0.00 95 1015.0
20260509095614 12 304 3.2 3.2 0.00 0.00 0.00 94 1014.9
20260509095112 13 269 1.6 1.6 0.00 0.00 0.00 94 1014.9
20260509094607 13 265 1.6 3.2 0.00 0.00 0.00 94 1014.9
20260509094105 13 277 1.6 3.2 0.00 0.00 0.00 94 1014.8
20260509093603 13 337 0.0 1.6 0.00 0.00 0.00 93 1014.8
20260509093100 13 244 0.0 1.6 0.00 0.00 0.00 93 1014.9
20260509092558 13 265 1.6 3.2 0.00 0.00 0.00 93 1014.7
20260509092056 13 289 1.6 1.6 0.00 0.00 0.00 93 1015.2
20260509091554 13 205 0.0 1.6 0.00 0.00 0.00 93 1015.4
20260509091050 13 276 1.6 1.6 0.00 0.00 0.00 93 1015.0
20260509090547 13 229 3.2 4.8 0.00 0.00 0.00 94 1015.0
20260509090045 13 160 0.0 1.6 0.00 0.00 0.00 94 1015.1
20260509085542 13 197 3.2 6.4 0.00 0.00 0.00 95 1015.1
20260509085038 13 195 4.8 4.8 0.00 0.00 0.00 96 1015.3
20260509084535 13 183 0.0 3.2 0.00 0.00 0.00 96 1015.3
20260509084032 13 299 1.6 4.8 0.00 0.00 0.00 96 1015.7
20260509083530 12 269 1.6 3.2 0.00 0.00 0.00 97 1015.7
20260509083026 12 311 1.6 3.2 0.00 0.00 0.00 97 1015.6
20260509082524 12 285 3.2 3.2 0.00 0.00 0.00 97 1015.4
20260509082021 12 279 1.6 1.6 0.00 0.00 0.00 97 1015.2
20260509081518 12 286 1.6 3.2 0.00 0.00 0.00 97 1015.2
20260509081015 12 297 1.6 3.2 0.00 0.00 0.00 97 1015.1
20260509080513 12 281 1.6 3.2 0.00 0.00 0.00 97 1015.2
20260509080011 12 295 1.6 3.2 0.00 0.00 0.00 98 1015.4
20260509075508 12 300 3.2 3.2 0.00 0.00 0.00 98 1015.4
20260509075005 12 294 3.2 3.2 0.00 0.00 0.00 97 1015.3
20260509074502 12 275 1.6 3.2 0.00 0.00 0.00 97 1015.2
20260509073959 12 277 1.6 3.2 0.00 0.00 0.00 97 1015.2
20260509073455 12 301 3.2 3.2 0.00 0.00 0.00 98 1015.1
20260509072951 12 299 1.6 3.2 0.00 0.00 0.00 97 1015.0
20260509072449 12 301 1.6 4.8 0.00 0.00 0.00 98 1014.9
20260509071945 12 296 3.2 3.2 0.00 0.00 0.00 97 1014.7
20260509071441 12 335 1.6 3.2 0.00 0.00 0.00 97 1014.7
20260509070940 12 304 1.6 3.2 0.00 0.00 0.00 97 1014.7
20260509070436 12 283 1.6 1.6 0.00 0.00 0.00 97 1014.8
20260509065932 12 256 1.6 3.2 0.00 0.00 0.00 97 1015.2
20260509065428 12 300 1.6 3.2 0.00 0.00 0.00 97 1015.0
20260509064924 12 317 1.6 4.8 0.00 0.00 0.00 98 1015.3
20260509064422 12 298 1.6 3.2 0.00 0.00 0.00 97 1015.5
20260509063920 11 291 1.6 3.2 0.00 0.00 0.00 97 1015.4
20260509063415 12 299 3.2 3.2 0.00 0.00 0.00 97 1015.4
20260509062907 12 290 1.6 3.2 0.00 0.00 0.00 97 1015.2
20260509062405 11 291 3.2 4.8 0.00 0.00 0.00 97 1015.5
20260509061902 11 298 3.2 3.2 0.00 0.00 0.00 97 1015.8
20260509061400 11 303 3.2 4.8 0.00 0.00 0.00 97 1015.6
20260509060856 11 293 3.2 4.8 0.00 0.00 0.00 96 1015.8
20260509060353 11 303 3.2 4.8 0.00 0.00 0.00 96 1015.6
20260509055848 11 301 3.2 3.2 0.00 0.00 0.00 96 1015.8
20260509055343 11 299 3.2 4.8 0.00 0.00 0.00 96 1015.9
20260509054841 11 297 3.2 6.4 0.00 0.00 0.00 96 1015.8
20260509054337 11 296 3.2 4.8 0.00 0.00 0.00 96 1016.0
20260509053836 11 290 3.2 4.8 0.00 0.00 0.00 96 1016.2
20260509053333 11 293 4.8 4.8 0.00 0.00 0.00 95 1016.2
20260509052831 11 299 4.8 4.8 0.00 0.00 0.00 95 1016.1
20260509052328 11 294 4.8 4.8 0.00 0.00 0.00 94 1016.3
20260509051826 11 287 3.2 4.8 0.00 0.00 0.00 94 1016.1
20260509051324 11 301 3.2 4.8 0.00 0.00 0.00 93 1016.1
20260509050820 11 295 3.2 4.8 0.00 0.00 0.00 93 1016.3
20260509050317 12 292 4.8 4.8 0.00 0.00 0.00 93 1016.3
20260509045814 12 300 3.2 4.8 0.00 0.00 0.00 93 1016.2
20260509045310 12 285 3.2 4.8 0.00 0.00 0.00 93 1016.2
20260509044808 12 309 3.2 4.8 0.00 0.00 0.00 92 1016.2
20260509044305 12 297 3.2 4.8 0.00 0.00 0.00 92 1016.2
20260509043802 12 304 4.8 4.8 0.00 0.00 0.00 91 1016.3
20260509043258 12 298 4.8 6.4 0.00 0.00 0.00 91 1016.5
20260509042754 12 286 3.2 4.8 0.00 0.00 0.00 91 1016.6
20260509042250 12 299 3.2 3.2 0.00 0.00 0.00 91 1016.6
20260509041747 12 298 3.2 6.4 0.00 0.00 0.00 90 1016.6
20260509041244 13 304 3.2 4.8 0.00 0.00 0.00 90 1016.6
20260509040743 13 300 3.2 4.8 0.00 0.00 0.00 89 1016.7
20260509040239 13 307 3.2 3.2 0.00 0.00 0.00 89 1016.7
20260509035736 13 292 3.2 3.2 0.00 0.00 0.00 89 1016.8
20260509035233 13 294 3.2 4.8 0.00 0.00 0.00 88 1016.9
20260509034730 13 307 3.2 6.4 0.00 0.00 0.00 88 1016.6
20260509034228 13 281 3.2 4.8 0.00 0.00 0.00 88 1016.7
20260509033724 13 304 3.2 6.4 0.00 0.00 0.00 87 1016.5
20260509033221 13 290 3.2 6.4 0.00 0.00 0.00 86 1016.7
20260509032719 13 287 3.2 4.8 0.00 0.00 0.00 87 1016.8
20260509032215 13 276 3.2 6.4 0.00 0.00 0.00 86 1016.7
20260509031713 14 311 3.2 3.2 0.00 0.00 0.00 86 1016.7
20260509031210 14 269 3.2 3.2 0.00 0.00 0.00 85 1016.8
20260509030708 15 214 1.6 3.2 0.00 0.00 0.00 86 1016.8
20260509030205 14 160 1.6 4.8 0.00 0.00 0.00 85 1016.7
20260509025701 15 270 1.6 4.8 0.00 0.00 0.00 84 1016.9
20260509025158 15 279 1.6 4.8 0.00 0.00 0.00 84 1016.9
20260509024653 15 289 3.2 3.2 0.00 0.00 0.00 84 1016.9
20260509024149 14 306 3.2 4.8 0.00 0.00 0.00 82 1016.8
20260509023647 15 275 3.2 3.2 0.00 0.00 0.00 82 1017.1
20260509023144 15 296 3.2 4.8 0.00 0.00 0.00 83 1017.1
20260509022640 15 281 3.2 4.8 0.00 0.00 0.00 82 1017.1
20260509022138 15 297 3.2 6.4 0.00 0.00 0.00 81 1016.9
20260509021634 15 286 4.8 4.8 0.00 0.00 0.00 80 1016.8
20260509021132 15 294 3.2 4.8 0.00 0.00 0.00 79 1016.8
20260509020630 15 286 3.2 4.8 0.00 0.00 0.00 81 1016.7
20260509020126 15 291 3.2 4.8 0.00 0.00 0.00 79 1016.6
20260509015626 15 291 3.2 4.8 0.00 0.00 0.00 79 1016.6
20260509015122 15 284 3.2 3.2 0.00 0.00 0.00 79 1016.7
20260509014619 16 298 3.2 4.8 0.00 0.00 0.00 78 1016.4
20260509014115 16 278 3.2 4.8 0.00 0.00 0.00 77 1016.5
20260509013613 16 302 3.2 4.8 0.00 0.00 0.00 76 1016.6
20260509013108 16 287 3.2 3.2 0.00 0.00 0.00 76 1016.2
20260509012605 16 264 1.6 4.8 0.00 0.00 0.00 75 1016.4
20260509012102 16 288 1.6 4.8 0.00 0.00 0.00 74 1016.5
20260509011600 17 297 1.6 3.2 0.00 0.00 0.00 73 1016.5
20260509011056 17 230 1.6 3.2 0.00 0.00 0.00 71 1016.6
20260509010554 17 184 0.0 3.2 0.00 0.00 0.00 71 1016.7
20260509010051 17 273 1.6 3.2 0.00 0.00 0.00 70 1016.4
20260509005549 17 274 3.2 4.8 0.00 0.00 0.00 70 1016.7
20260509005044 18 168 0.0 1.6 0.00 0.00 0.00 68 1016.6
20260509004541 18 192 1.6 3.2 0.00 0.00 0.00 67 1016.5
20260509004038 17 169 6.4 9.7 0.00 0.00 0.00 71 1016.6
20260509003537 17 287 3.2 3.2 0.00 0.00 0.00 68 1016.7
20260509003033 18 167 0.0 3.2 0.00 0.00 0.00 65 1016.4
20260509002531 18 306 1.6 4.8 0.00 0.00 0.00 63 1016.6
20260509002028 19 217 1.6 3.2 0.00 0.00 0.00 64 1016.6
20260509001525 20 209 3.2 3.2 0.00 0.00 0.00 60 1016.4
20260509001021 20 194 8.0 12.9 0.00 0.00 0.00 63 1016.7
20260509000520 20 202 9.7 11.3 0.00 0.00 0.00 61 1016.6
20260509000015 19 189 9.7 12.9 0.00 0.00 0.00 60 1016.5
20260508235514 20 258 1.6 3.2 0.00 0.00 0.00 64 1016.5
20260508235009 20 212 3.2 9.7 0.00 0.00 0.00 58 1016.4
20260508234507 20 203 1.6 9.7 0.00 0.00 0.00 60 1016.5
20260508234004 20 202 0.0 4.8 0.00 0.00 0.00 59 1016.4
20260508233503 21 181 6.4 11.3 0.00 0.00 0.00 60 1016.4
20260508233000 21 184 6.4 11.3 0.00 0.00 0.00 57 1016.4
20260508232457 21 180 1.6 4.8 0.00 0.00 0.00 56 1016.3
20260508231954 21 178 1.6 3.2 0.00 0.00 0.00 54 1016.5
20260508231451 21 186 1.6 9.7 0.00 0.00 0.00 54 1016.4
20260508230948 21 199 4.8 11.3 0.00 0.00 0.00 54 1016.6
20260508230445 21 198 6.4 6.4 0.00 0.00 0.00 52 1016.5
20260508225942 21 186 4.8 9.7 0.00 0.00 0.00 53 1016.6
20260508225439 21 185 4.8 4.8 0.00 0.00 0.00 52 1016.6
20260508224936 21 182 6.4 12.9 0.00 0.00 0.00 50 1016.6
20260508224433 22 169 9.7 12.9 0.00 0.00 0.00 53 1016.6
20260508223930 22 178 9.7 12.9 0.00 0.00 0.00 53 1016.7
20260508223429 21 174 8.0 11.3 0.00 0.00 0.00 54 1016.8
20260508222925 21 201 1.6 9.7 0.00 0.00 0.00 55 1016.7
20260508222422 22 173 8.0 11.3 0.00 0.00 0.00 53 1016.7
20260508221919 21 192 9.7 11.3 0.00 0.00 0.00 52 1016.9
20260508221415 21 182 4.8 6.4 0.00 0.00 0.00 49 1016.7
20260508220911 21 189 6.4 9.7 0.00 0.00 0.00 49 1016.7
20260508220408 22 180 0.0 1.6 0.00 0.00 0.00 51 1016.6
20260508215904 22 268 1.6 1.6 0.00 0.00 0.00 48 1016.7
20260508215401 22 188 0.0 3.2 0.00 0.00 0.00 52 1016.5
20260508214858 22 192 0.0 1.6 0.00 0.00 0.00 46 1016.6
20260508214356 22 188 3.2 3.2 0.00 0.00 0.00 45 1016.5
20260508213852 22 244 1.6 3.2 0.00 0.00 0.00 49 1016.5
20260508213349 22 183 0.0 3.2 0.00 0.00 0.00 47 1016.6
20260508212844 22 187 1.6 3.2 0.00 0.00 0.00 48 1016.5
20260508212341 22 283 1.6 4.8 0.00 0.00 0.00 49 1016.5
20260508211837 22 188 3.2 4.8 0.00 0.00 0.00 49 1016.7
20260508211333 21 196 4.8 9.7 0.00 0.00 0.00 44 1016.8
20260508210831 22 182 1.6 3.2 0.00 0.00 0.00 43 1016.8
20260508210327 22 168 1.6 6.4 0.00 0.00 0.00 44 1016.8
20260508205824 22 195 4.8 6.4 0.00 0.00 0.00 43 1017.0
20260508205320 23 195 6.4 6.4 0.00 0.00 0.00 40 1016.9
20260508204816 22 178 1.6 6.4 0.00 0.00 0.00 38 1017.3
20260508204313 22 170 3.2 4.8 0.00 0.00 0.00 39 1017.2
20260508203809 22 182 6.4 6.4 0.00 0.00 0.00 40 1017.2
20260508203305 23 197 3.2 4.8 0.00 0.00 0.00 38 1017.1
20260508202801 22 158 1.6 3.2 0.00 0.00 0.00 44 1017.1
20260508202259 22 193 1.6 3.2 0.00 0.00 0.00 38 1017.2
20260508201756 22 164 3.2 4.8 0.00 0.00 0.00 39 1017.2
20260508201252 22 181 0.0 3.2 0.00 0.00 0.00 39 1017.0
20260508200749 22 124 1.6 1.6 0.00 0.00 0.00 41 1017.5
20260508200245 23 134 0.0 0.0 0.00 0.00 0.00 38 1017.3
20260508195741 23 168 0.0 3.2 0.00 0.00 0.00 38 1017.3
20260508195238 23 170 1.6 3.2 0.00 0.00 0.00 37 1017.5
20260508194735 23 206 3.2 3.2 0.00 0.00 0.00 37 1017.4
20260508194232 23 204 0.0 3.2 0.00 0.00 0.00 35 1017.8
20260508193729 23 154 1.6 1.6 0.00 0.00 0.00 39 1017.9
20260508193225 23 166 1.6 3.2 0.00 0.00 0.00 37 1017.9
20260508192722 23 157 0.0 3.2 0.00 0.00 0.00 38 1017.7
20260508192219 22 135 1.6 3.2 0.00 0.00 0.00 39 1018.0
20260508191716 23 198 1.6 3.2 0.00 0.00 0.00 37 1018.1
20260508191213 22 160 0.0 1.6 0.00 0.00 0.00 38 1018.1
20260508190710 22 137 0.0 0.0 0.00 0.00 0.00 40 1018.4
20260508190206 21 153 0.0 1.6 0.00 0.00 0.00 39 1018.4
20260508185703 21 97 1.6 3.2 0.00 0.00 0.00 44 1018.0
20260508185200 22 128 1.6 3.2 0.00 0.00 0.00 38 1018.2
20260508184658 23 153 0.0 1.6 0.00 0.00 0.00 39 1018.7
20260508184155 22 192 1.6 3.2 0.00 0.00 0.00 38 1018.7
20260508183652 22 187 1.6 1.6 0.00 0.00 0.00 40 1019.0
20260508183148 21 146 0.0 1.6 0.00 0.00 0.00 40 1019.0
20260508182644 21 143 0.0 1.6 0.00 0.00 0.00 39 1019.1
20260508182141 21 152 1.6 4.8 0.00 0.00 0.00 42 1019.2
20260508181636 22 176 6.4 6.4 0.00 0.00 0.00 43 1019.2
20260508181134 22 170 0.0 1.6 0.00 0.00 0.00 41 1019.3
20260508180630 21 123 1.6 1.6 0.00 0.00 0.00 38 1019.4
20260508180127 22 164 0.0 1.6 0.00 0.00 0.00 41 1019.2
20260508175623 22 160 0.0 1.6 0.00 0.00 0.00 41 1019.3
20260508175120 21 135 0.0 1.6 0.00 0.00 0.00 42 1019.4
20260508174618 21 138 0.0 3.2 0.00 0.00 0.00 41 1019.5
20260508174115 22 178 3.2 3.2 0.00 0.00 0.00 39 1019.7
20260508173612 22 172 1.6 1.6 0.00 0.00 0.00 42 1019.8
20260508173108 21 166 0.0 3.2 0.00 0.00 0.00 41 1019.6
20260508172605 21 166 0.0 3.2 0.00 0.00 0.00 42 1019.8
20260508172101 21 170 1.6 3.2 0.00 0.00 0.00 46 1019.9
20260508171558 20 144 0.0 0.0 0.00 0.00 0.00 49 1020.0
20260508171054 20 127 0.0 0.0 0.00 0.00 0.00 46 1020.0
20260508170552 20 220 0.0 1.6 0.00 0.00 0.00 46 1020.3
20260508170049 18 108 1.6 4.8 0.00 0.00 0.00 47 1020.0
20260508165546 19 106 1.6 1.6 0.00 0.00 0.00 46 1019.9
20260508165043 21 184 0.0 1.6 0.00 0.00 0.00 47 1020.4
20260508164539 19 130 0.0 1.6 0.00 0.00 0.00 47 1020.3
20260508164036 18 61 1.6 3.2 0.00 0.00 0.00 46 1020.9
20260508163534 19 131 0.0 0.0 0.00 0.00 0.00 50 1020.7
20260508163030 19 135 0.0 3.2 0.00 0.00 0.00 49 1020.8
20260508162527 20 87 0.0 1.6 0.00 0.00 0.00 45 1021.0
20260508162025 21 196 1.6 1.6 0.00 0.00 0.00 43 1020.8
20260508161521 21 144 0.0 0.0 0.00 0.00 0.00 48 1021.1
20260508161018 20 157 0.0 0.0 0.00 0.00 0.00 49 1020.8
20260508160517 20 177 1.6 4.8 0.00 0.00 0.00 49 1021.3
20260508160014 20 160 1.6 3.2 0.00 0.00 0.00 50 1021.5
20260508155510 19 146 1.6 1.6 0.00 0.00 0.00 51 1021.3
20260508155008 18 146 0.0 3.2 0.00 0.00 0.00 52 1021.4
20260508154505 17 69 3.2 3.2 0.00 0.00 0.00 54 1021.3
20260508154001 18 61 3.2 3.2 0.00 0.00 0.00 52 1021.3
20260508153458 18 130 1.6 1.6 0.00 0.00 0.00 52 1021.3
20260508152954 18 94 1.6 3.2 0.00 0.00 0.00 52 1021.5
20260508152451 19 139 0.0 1.6 0.00 0.00 0.00 53 1021.5
20260508151947 18 62 1.6 3.2 0.00 0.00 0.00 54 1021.6
20260508151444 20 158 0.0 0.0 0.00 0.00 0.00 56 1021.8
20260508150941 19 131 0.0 1.6 0.00 0.00 0.00 56 1021.7
20260508150437 17 107 0.0 1.6 0.00 0.00 0.00 59 1021.6
20260508145933 17 78 0.0 1.6 0.00 0.00 0.00 61 1021.5
20260508145430 17 51 1.6 1.6 0.00 0.00 0.00 62 1021.7
20260508144927 16 107 1.6 3.2 0.00 0.00 0.00 65 1021.7
20260508144425 16 63 3.2 3.2 0.00 0.00 0.00 65 1021.9
20260508143922 16 102 1.6 3.2 0.00 0.00 0.00 64 1021.9
20260508143419 15 81 3.2 4.8 0.00 0.00 0.00 65 1021.8
20260508142915 16 68 3.2 4.8 0.00 0.00 0.00 65 1021.8
20260508142413 16 147 1.6 3.2 0.00 0.00 0.00 62 1021.7
20260508141909 16 113 0.0 3.2 0.00 0.00 0.00 63 1022.0
20260508141406 16 62 1.6 3.2 0.00 0.00 0.00 61 1022.0
20260508140904 15 109 3.2 3.2 0.00 0.00 0.00 63 1022.1
20260508140400 15 91 3.2 4.8 0.00 0.00 0.00 64 1022.0
20260508135856 15 106 1.6 3.2 0.00 0.00 0.00 63 1022.0
20260508135352 15 64 3.2 6.4 0.00 0.00 0.00 63 1021.6
20260508134849 15 76 3.2 9.7 0.00 0.00 0.00 65 1021.9
20260508134345 15 37 3.2 6.4 0.00 0.00 0.00 63 1021.7
20260508133842 15 89 1.6 6.4 0.00 0.00 0.00 63 1021.7
20260508133340 15 120 0.0 4.8 0.00 0.00 0.00 62 1021.8